Renton, WA
on Saturday, December 8, 2012

Saturday
Previous Day Next Day
Daily Summary
 ActualAverage (KSEA)Record (KSEA)
Temperature
Mean Temperature °F 41°F  
Max Temperature 46°F 46°F 59°F (1957)
Min Temperature 39°F 36°F 13°F (1972)
Degree Days
Heating Degree Days 22 24  
Month to date heating degree days 188  
Since 1 July heating degree days 1371  
Cooling Degree Days 0 0  
Month to date cooling degree days 0  
Year to date cooling degree days 189  
Moisture
Dew Point 36°F   
Average Humidity 77    
Maximum Humidity 87    
Minimum Humidity 65    
Precipitation
Precipitation 0.00 in 0.18 in 1.61 in (1971)
Month to date precipitation 1.53  
Year to date precipitation 33.67  
Snow
Snow 0.00 in in 2.20 in (1971)
Month to date snowfall  
Since 1 July snowfall  
Snow Depth in   
Wind
Wind Speed 2 mph   
Max Wind Speed 7 mph   
Max Gust Speed mph   
Visibility 10 miles   
Events     

Key: T is trace of precipitation, MM is missing value
Source: NWS Daily Summary
Time(PST)TemperatureDew PointHumidity Pressure Visibility Wind DirectionWind SpeedGust SpeedPrecipitationEvents Conditions
12:53 AM 39.9°F 35.1°F 83% 30.17 in 10.0 miles Calm Calm - N/A   Clear
1:53 AM 39.9°F 35.1°F 83% 30.18 in 10.0 miles East 3.5 mph - N/A   Overcast
2:53 AM 39.2°F 35.6°F 87% 30.17 in 10.0 miles SSE 3.5 mph - N/A   Overcast
3:53 AM 41.0°F 35.1°F 79% 30.19 in 10.0 miles Calm Calm - N/A   Overcast
4:53 AM 41.0°F 35.1°F 79% 30.19 in 10.0 miles Calm Calm - N/A   Overcast
5:37 AM 41.0°F 35.6°F 81% 30.17 in 10.0 miles SSE 5.8 mph - N/A   Overcast
5:53 AM 41.0°F 35.1°F 79% 30.20 in 10.0 miles SE 3.5 mph - N/A   Overcast
6:32 AM 41.0°F 35.6°F 81% 30.19 in 10.0 miles ESE 4.6 mph - N/A   Overcast
6:53 AM 41.0°F 36.0°F 82% 30.21 in 10.0 miles East 3.5 mph - N/A   Overcast
7:36 AM 42.8°F 35.6°F 76% 30.20 in 10.0 miles Calm Calm - N/A   Overcast
7:53 AM 42.1°F 36.0°F 79% 30.22 in 10.0 miles Calm Calm - N/A   Overcast
8:48 AM 42.8°F 35.6°F 76% 30.21 in 10.0 miles SE 3.5 mph - N/A   Overcast
8:53 AM 42.1°F 36.0°F 79% 30.23 in 10.0 miles Variable 3.5 mph - N/A   Overcast
9:53 AM 44.1°F 37.0°F 76% 30.25 in 10.0 miles Calm Calm - N/A   Mostly Cloudy
10:53 AM 45.0°F 37.9°F 76% 30.27 in 10.0 miles Calm Calm - N/A   Mostly Cloudy
11:53 AM 46.0°F 36.0°F 68% 30.27 in 10.0 miles NNW 3.5 mph - N/A   Overcast
11:56 AM 46.4°F 37.4°F 71% 30.25 in 10.0 miles NNW 6.9 mph - N/A   Overcast
12:53 PM 45.0°F 37.0°F 74% 30.27 in 10.0 miles North 4.6 mph - N/A   Overcast
1:53 PM 45.0°F 34.0°F 65% 30.27 in 10.0 miles NNW 3.5 mph - N/A   Clear
2:53 PM 45.0°F 34.0°F 65% 30.28 in 10.0 miles Calm Calm - N/A   Clear
3:53 PM 45.0°F 35.1°F 68% 30.30 in 10.0 miles Variable 3.5 mph - N/A   Clear
4:53 PM 43.0°F 35.1°F 74% 30.31 in 10.0 miles Calm Calm - N/A   Mostly Cloudy
5:53 PM 43.0°F 36.0°F 76% 30.31 in 10.0 miles Calm Calm - N/A   Mostly Cloudy
6:53 PM 42.1°F 36.0°F 79% 30.32 in 10.0 miles Calm Calm - N/A   Partly Cloudy
7:53 PM 42.1°F 36.0°F 79% 30.34 in 10.0 miles Calm Calm - N/A   Overcast
8:53 PM 42.1°F 36.0°F 79% 30.35 in 10.0 miles Calm Calm - N/A   Overcast
9:53 PM 41.0°F 36.0°F 82% 30.36 in 10.0 miles Calm Calm - N/A   Scattered Clouds
10:53 PM 39.9°F 36.0°F 86% 30.37 in 10.0 miles Calm Calm - N/A   Mostly Cloudy
11:53 PM 41.0°F 35.1°F 79% 30.37 in 10.0 miles Calm Calm - N/A   Mostly Cloudy
Moon Phase
Dec. 08 Dec. 13 Dec. 20 Dec. 28 Jan. 04
Sunrise:07:44 AM (PST) Moon Rise:01:57 AM (PST)12/8
Sunset:04:17 PM (PST) Moon Set:01:06 PM (PST)12/8

Copyright © 2014 The Weather Underground, Inc.